Buger, Spain

2:07 PM CEST on August 17, 2017 (GMT +0200)
Buger

Weather History for 08306 - December, 2013

Change the Weather History Date:

Tuesday, December 24, 2013

  Actual Average Record
Temperature  
Mean Temperature 59 °F -  
Max Temperature 62 °F 57 °F - ()
Min Temperature 56 °F 39 °F - ()
Degree Days  
Heating Degree Days 6    
Growing Degree Days 9 (Base 50)    
Moisture  
Dew Point 52 °F    
Average Humidity 77    
Maximum Humidity 82    
Minimum Humidity 62    
Precipitation  
Precipitation 0.00 in 0.05 in - ()
Sea Level Pressure  
Sea Level Pressure 30.05 in    
Wind  
Wind Speed 13 mph ()    
Max Wind Speed 24 mph    
Max Gust Speed 29 mph    
Visibility 6.8 miles    
Events      
T = Trace of Precipitation, MM = Missing Value Source: Averaged Metar Reports

Daily Weather History Graph

Daily Weather History Graph

Search for Another Location

Airport or City:

Trip Planner

Search our weather history database for the weather conditions in past years. The results will help you decide how hot, cold, wet, or windy it might be!

Date:

Astronomy

Dec. 24, 2013 Rise Set
Actual Time 8:07 AM CET 5:30 PM CET
Civil Twilight 7:37 AM CET 6:00 PM CET
Nautical Twilight 7:03 AM CET 6:34 PM CET
Astronomical Twilight 6:30 AM CET 7:07 PM CET
Moon No Moon Rise 11:55 AM CET (12/24)
Length of Visible Light 10h 23m
Length of Day
9h 22m
Waning Gibbous, 61% of the Moon is Illuminated
Dec 24
Waning Gibbous
Dec 25
Last Quarter
Jan 1
New
Jan 8
First Quarter
Jan 16
Full

Hourly Weather History & Observations

Time (CET) Temp. Dew Point Humidity Pressure Visibility Wind Dir Wind Speed Gust Speed Precip Events Conditions
12:00 AM 57 °F 52 °F 76% 30.22 in - WSW 12.7 mph - -  
12:00 AM 57.2 °F 51.8 °F 82% 30.21 in 6.2 mi SW 10.4 mph - N/A   Scattered Clouds
12:30 AM 57.2 °F 51.8 °F 82% 30.21 in 6.2 mi SW 9.2 mph - N/A   Scattered Clouds
1:00 AM 57 °F 52 °F 77% 30.20 in 11 mi SW 13.8 mph - -   Partly Cloudy
1:00 AM 57.2 °F 51.8 °F 82% 30.18 in 6.2 mi SW 10.4 mph - N/A   Scattered Clouds
1:30 AM 57.2 °F 51.8 °F 82% 30.18 in 6.2 mi SW 11.5 mph - N/A   Scattered Clouds
2:00 AM 57 °F 52 °F 78% 30.19 in - SW 15.0 mph - -  
2:00 AM 57.2 °F 51.8 °F 82% 30.18 in 6.2 mi SW 12.7 mph - N/A   Partly Cloudy
2:30 AM 57.2 °F 51.8 °F 82% 30.18 in 6.2 mi SW 11.5 mph - N/A   Partly Cloudy
3:00 AM 57 °F 53 °F 80% 30.17 in - SW 15.0 mph - -  
3:00 AM 57.2 °F 51.8 °F 82% 30.15 in 6.2 mi SW 11.5 mph - N/A   Partly Cloudy
3:30 AM 57.2 °F 51.8 °F 82% 30.15 in 6.2 mi SW 13.8 mph - N/A   Scattered Clouds
4:00 AM 57 °F 52 °F 78% 30.16 in 11 mi SW 16.1 mph - -   Mostly Cloudy
4:00 AM 57.2 °F 51.8 °F 82% 30.15 in 6.2 mi SW 13.8 mph - N/A   Scattered Clouds
4:30 AM 57.2 °F 51.8 °F 82% 30.12 in 6.2 mi SW 12.7 mph - N/A   Scattered Clouds
5:00 AM 58 °F 53 °F 77% 30.14 in - SW 11.5 mph - -  
5:00 AM 57.2 °F 51.8 °F 82% 30.12 in 6.2 mi SW 10.4 mph - N/A   Scattered Clouds
5:30 AM 57.2 °F 51.8 °F 82% 30.12 in 6.2 mi SW 9.2 mph - N/A   Scattered Clouds
6:00 AM 58 °F 52 °F 75% 30.13 in - SW 13.8 mph - -  
6:00 AM 57.2 °F 51.8 °F 82% 30.12 in 6.2 mi SW 11.5 mph - N/A   Mostly Cloudy
6:30 AM 57.2 °F 51.8 °F 82% 30.12 in 6.2 mi SW 12.7 mph - N/A   Mostly Cloudy
7:00 AM 58 °F 53 °F 76% 30.12 in 9 mi SW 16.1 mph - -   Mostly Cloudy
7:00 AM 57.2 °F 51.8 °F 82% 30.12 in 6.2 mi SW 12.7 mph - N/A   Mostly Cloudy
7:30 AM 57.2 °F 51.8 °F 82% 30.09 in 6.2 mi SW 12.7 mph - N/A   Mostly Cloudy
8:00 AM 58 °F 51 °F 72% 30.11 in - SW 18.4 mph - -  
8:00 AM 57.2 °F 51.8 °F 82% 30.09 in 6.2 mi SW 15.0 mph - N/A   Mostly Cloudy
8:30 AM 57.2 °F 51.8 °F 82% 30.09 in 6.2 mi SW 15.0 mph - N/A   Mostly Cloudy
9:00 AM 58 °F 52 °F 73% 30.11 in - SW 16.1 mph - -  
9:00 AM 57.2 °F 51.8 °F 82% 30.09 in 6.2 mi SW 13.8 mph - N/A   Mostly Cloudy
9:30 AM 59.0 °F 51.8 °F 77% 30.09 in 6.2 mi SW 15.0 mph - N/A   Mostly Cloudy
10:00 AM 58 °F 52 °F 73% 30.11 in 12 mi SW 17.3 mph - -   Overcast
10:00 AM 59.0 °F 51.8 °F 77% 30.09 in 6.2 mi SW 12.7 mph - N/A   Mostly Cloudy
10:30 AM 59.0 °F 51.8 °F 77% 30.09 in 6.2 mi SW 15.0 mph - N/A   Mostly Cloudy
11:00 AM 60 °F 52 °F 67% 30.10 in - SW 17.3 mph - -  
11:00 AM 59.0 °F 51.8 °F 77% 30.09 in 6.2 mi SW 16.1 mph - N/A   Mostly Cloudy
11:30 AM 59.0 °F 51.8 °F 77% 30.06 in 6.2 mi SW 12.7 mph - N/A   Mostly Cloudy
12:00 PM 62 °F 52 °F 62% 30.08 in - SW 18.4 mph - -  
12:00 PM 60.8 °F 53.6 °F 77% 30.06 in 6.2 mi SW 16.1 mph - N/A   Scattered Clouds
12:30 PM 60.8 °F 53.6 °F 77% 30.06 in 6.2 mi SSW 18.4 mph - N/A   Scattered Clouds
1:00 PM 62 °F 53 °F 64% 30.05 in 9 mi SW 21.9 mph - -   Mostly Cloudy
1:00 PM 60.8 °F 51.8 °F 72% 30.04 in 6.2 mi SW 17.3 mph - N/A   Scattered Clouds
1:30 PM 60.8 °F 53.6 °F 77% 30.04 in 6.2 mi SW 18.4 mph - N/A   Scattered Clouds
2:00 PM 61 °F 53 °F 69% 30.04 in - SW 19.6 mph - -  
2:00 PM 60.8 °F 53.6 °F 77% 30.04 in 6.2 mi SW 17.3 mph - N/A   Scattered Clouds
2:30 PM 60.8 °F 53.6 °F 77% 30.01 in 6.2 mi SW 15.0 mph - N/A   Scattered Clouds
3:00 PM 61 °F 54 °F 70% 30.01 in - SW 19.6 mph - -  
3:00 PM 60.8 °F 53.6 °F 77% 30.01 in 6.2 mi SW 16.1 mph - N/A   Scattered Clouds
3:30 PM 60.8 °F 53.6 °F 77% 30.01 in 6.2 mi SW 17.3 mph - N/A   Scattered Clouds
4:00 PM 61 °F 52 °F 65% 30.00 in 9 mi SW 18.4 mph - -   Mostly Cloudy
4:00 PM 60.8 °F 51.8 °F 72% 29.98 in 6.2 mi SW 16.1 mph - N/A   Scattered Clouds
4:30 PM 59.0 °F 51.8 °F 77% 29.98 in 6.2 mi SW 16.1 mph - N/A   Scattered Clouds
5:00 PM 60 °F 52 °F 69% 29.98 in - SSW 17.3 mph - -  
5:00 PM 59.0 °F 51.8 °F 77% 29.98 in 6.2 mi SW 15.0 mph - N/A   Scattered Clouds
5:30 PM 59.0 °F 51.8 °F 77% 29.98 in 6.2 mi SW 16.1 mph - N/A   Scattered Clouds
6:00 PM 59 °F 52 °F 72% 29.97 in - SW 20.7 mph - -  
6:00 PM 59.0 °F 51.8 °F 77% 29.95 in 6.2 mi SW 18.4 mph - N/A   Scattered Clouds
6:30 PM 59.0 °F 53.6 °F 82% 29.95 in 6.2 mi SW 17.3 mph - N/A   Scattered Clouds
7:00 PM 59 °F 53 °F 74% 29.95 in 9 mi SW 20.7 mph - -   Mostly Cloudy
7:00 PM 59.0 °F 53.6 °F 82% 29.95 in 6.2 mi SW 17.3 mph - N/A   Scattered Clouds
7:30 PM 59.0 °F 51.8 °F 77% 29.95 in 6.2 mi SW 18.4 mph - N/A   Scattered Clouds
8:00 PM 60 °F 53 °F 72% 29.94 in - SW 21.9 mph - -  
8:00 PM 59.0 °F 53.6 °F 82% 29.92 in 6.2 mi SW 17.3 mph - N/A   Scattered Clouds
8:30 PM 59.0 °F 53.6 °F 82% 29.89 in 6.2 mi SSW 11.5 mph - N/A   Scattered Clouds
9:00 PM 60 °F 53 °F 72% 29.90 in - SW 15.0 mph - -  
9:00 PM 60.8 °F 53.6 °F 77% 29.89 in 6.2 mi SW 11.5 mph - N/A   Scattered Clouds
9:30 PM 60.8 °F 53.6 °F 77% 29.89 in 6.2 mi SSW 16.1 mph - N/A   Scattered Clouds
10:00 PM 60 °F 53 °F 72% 29.89 in 12 mi SW 20.7 mph - -   Partly Cloudy
10:00 PM 60.8 °F 53.6 °F 77% 29.89 in 6.2 mi SW 17.3 mph 28.8 mph N/A   Partly Cloudy
10:30 PM 60.8 °F 53.6 °F 77% 29.86 in 6.2 mi SW 17.3 mph - N/A   Partly Cloudy
11:00 PM 60 °F 53 °F 71% 29.87 in - SW 24.2 mph - -  
11:00 PM 60.8 °F 53.6 °F 77% 29.86 in 6.2 mi SW 19.6 mph - N/A   Partly Cloudy
11:30 PM 60.8 °F 53.6 °F 77% 29.83 in 6.2 mi SSW 17.3 mph - N/A   Partly Cloudy